Regional Weather Roundup
Issued by NWS

Home | Current Version | Previous Version | Graphics & Text | Print | Product List | Glossary On
Versions: 1 2 3 4 5 6 7 8 9 10 11 12 13 14 15 16 17 18 19 20 21 22 23 24 25 26 27 28 29 30 31 32 33 34 35 36 37 38 39 40 41 42 43 44 45 46 47 48 49 50
885
ASUS45 KSLC 221210
RWRUT

UTAH REGIONAL WEATHER ROUNDUP
NATIONAL WEATHER SERVICE SALT LAKE CITY UT
500 AM MST SUN JAN 22 2017

UTZ001>011-023>025-221300-

NORTHERN UTAH

CITY           SKY/WX    TMP DP  RH WIND       PRES   REMARKS
BRIGHAM CITY     N/A     26  22  85 N3        29.97S
HILL AFB       PTCLDY    25  18  74 SE10      29.94F WCI  15
LOGAN          CLOUDY    25  24  96 CALM      29.95F
OGDEN          MOCLDY    25  21  85 S12       29.94F WCI  14
SALT LAKE CITY PTCLDY    28  22  78 SE12      29.96F WCI  18
TOOELE VALLEY  PTCLDY    27  21  80 S10       29.95F WCI  17
WENDOVER       PTCLDY    21  18  86 NE9       29.92F WCI  11
HEBER CITY     CLOUDY    16  12  86 CALM      29.97S
WEST JORDAN    PTCLDY    26  26  96 S9        29.98S WCI  17

$$

UTZ011>015-024>027-221300-

CENTRAL/NORTHEAST UTAH

CITY           SKY/WX    TMP DP  RH WIND       PRES   REMARKS
PROVO AIRPORT  PTCLDY    16  12  86 NW5       30.00F FOG     WCI   9
MOAB/CANYONLAN CLEAR     28  24  85 CALM      30.01S
DELTA          CLOUDY    21  19  93 NE6       29.97F WCI  14
PRICE          PTCLDY    11   7  84 N9        29.98R WCI  -2
ROOSEVELT      CLOUDY     9   5  85 CALM      30.03R
VERNAL         CLOUDY    15  12  88 W3        30.00S

$$

UTZ013>016-019>022-027-221300-

SOUTHERN UTAH

CITY           SKY/WX    TMP DP  RH WIND       PRES   REMARKS
BRYCE CANYON   CLOUDY     8   3  80 CALM      30.00R
CEDAR CITY     CLOUDY    28  23  81 S8        29.99R WCI  20
MILFORD        CLOUDY    29  22  75 SW10      29.99R WCI  20
ST GEORGE      MOSUNNY   36  28  75 CALM      30.11R
HANKSVILLE     PTCLDY    25  21  86 MISG      30.04F
BLANDING       PTCLDY    16  14  92 NE9       30.09S WCI   4

$$

REGIONAL REPORTS     COLORADO/ARIZONA

CITY           SKY/WX    TMP DP  RH WIND       PRES   REMARKS
CRAIG, CO      CLOUDY    21  16  81 CALM      29.98R
GRAND JUNCTION CLEAR     24  22  91 CALM      30.02R
RIFLE, CO      CLOUDY    30  25  81 W6        30.00R WCI  24
MONTROSE, CO   PTCLDY    24  19  81 SE8       30.04R WCI  15
CORTEZ, CO     CLOUDY     8   6  92 NE8       30.04R WCI  -4
COLORADO CITY    N/A     28  27  93 CALM      30.10S
PAGE, AZ       PTCLDY    34  23  64 SW6       30.07R WCI  29
GRAND CANYON   MOCLDY     3   0  87 CALM      30.09R
KINGMAN, AZ    CLOUDY    40  25  55 SE7       30.10R
FLAGSTAFF, AZ  CLOUDY    24  22  91 W5        30.11R WCI  18

$$

REGIONAL REPORTS    NEVADA/IDAHO/WYOMING

CITY           SKY/WX    TMP DP  RH WIND       PRES   REMARKS
LAS VEGAS, NV  LGT RAIN  49  34  56 S9        30.00F
ELY, NY        CLOUDY    25  20  81 S7        29.92F WCI  17
ELKO, NV       CLOUDY    25  17  72 E7        29.82F WCI  17
POCATELLO, ID  CLOUDY    33  23  66 CALM      29.89F
BURLEY, ID     CLOUDY    33  20  58 S14       29.85F WCI  23
FORT BRIDGER,    N/A     21  17  86 SW16      29.96R WCI   7
EVANSTON, WY   CLOUDY    18  14  84 SW9       29.92F WCI   7
ROCK SPRINGS,  CLEAR     20  14  77 SW22      29.92F WCI   3

$$




USA.gov is the U.S. government's official web portal to all federal, state and local government web resources and services.